START_TIME,STEP,MOV.,P11,t_acc.,P23,t_acc.,P27,t_acc.,A4,t_acc.
1979-08-05 03:00:21.770 ,1,0,1.,4.8,1.,4.8,0.,4.8,0.,4.8
1979-08-05 03:00:26.570 ,1,0,2.,4.8,2.,4.8,3.,4.8,0.,4.8
1979-08-05 03:00:31.370 ,1,0,3.,4.8,0.,4.8,2.,4.8,0.,4.8
1979-08-05 03:00:36.170 ,1,0,6.,4.8,0.,4.8,1.,4.8,0.,4.8
1979-08-05 03:00:40.970 ,1,0,2.,4.8,0.,4.8,2.,4.8,0.,4.8
1979-08-05 03:00:45.770 ,2,0,2.,4.8,1.,4.8,0.,4.8,0.,4.8
1979-08-05 03:00:50.570 ,2,0,0.,4.8,1.,4.8,0.,4.8,0.,4.8
1979-08-05 03:00:55.370 ,2,0,2.,4.8,0.,4.8,1.,4.8,0.,4.8
1979-08-05 03:01:00.170 ,2,0,1.,4.8,0.,4.8,3.,4.8,0.,4.8
1979-08-05 03:01:04.970 ,2,0,1.,4.8,1.,4.8,1.,4.8,0.,4.8
1979-08-05 03:01:09.770 ,2,0,0.,4.8,0.,4.8,1.,4.8,0.,4.8
1979-08-05 03:01:14.570 ,2,0,2.,4.8,0.,4.8,1.,4.8,0.,4.8
1979-08-05 03:01:19.370 ,2,0,1.,4.8,0.,4.8,2.,4.8,0.,4.8
1979-08-05 03:01:24.170 ,2,0,,0,,0,,0,,0
1979-08-05 03:01:28.970 ,2,0,3.,4.8,1.,4.8,1.,4.8,0.,4.8
1979-08-05 03:01:33.770 ,3,0,3.,4.8,0.,4.8,0.,4.8,0.,4.8
1979-08-05 03:01:38.570 ,3,0,1.,4.8,0.,4.8,1.,4.8,0.,4.8
1979-08-05 03:01:43.370 ,3,0,2.,4.8,0.,4.8,0.,4.8,0.,4.8
1979-08-05 03:01:48.170 ,3,0,4.,4.8,1.,4.8,1.,4.8,0.,4.8
1979-08-05 03:01:52.970 ,3,0,1.,4.8,0.,4.8,0.,4.8,0.,4.8
1979-08-05 03:01:57.770 ,3,0,3.,4.8,0.,4.8,1.,4.8,0.,4.8
1979-08-05 03:02:02.570 ,3,0,3.,4.8,0.,4.8,3.,4.8,0.,4.8
1979-08-05 03:02:07.370 ,3,0,3.,4.8,0.,4.8,0.,4.8,0.,4.8
1979-08-05 03:02:12.170 ,3,0,2.,4.8,0.,4.8,0.,4.8,0.,4.8
1979-08-05 03:02:16.970 ,3,0,1.,4.8,0.,4.8,0.,4.8,0.,4.8
1979-08-05 03:02:21.770 ,4,0,3.,4.8,1.,4.8,0.,4.8,0.,4.8
1979-08-05 03:02:26.570 ,4,0,2.,4.8,0.,4.8,0.,4.8,0.,4.8
1979-08-05 03:02:31.370 ,4,0,1.,4.8,0.,4.8,0.,4.8,0.,4.8
1979-08-05 03:02:36.170 ,4,0,1.,4.8,0.,4.8,0.,4.8,0.,4.8
1979-08-05 03:02:40.970 ,4,0,2.,4.8,0.,4.8,0.,4.8,0.,4.8
1979-08-05 03:02:45.770 ,4,0,2.,4.8,0.,4.8,0.,4.8,0.,4.8
1979-08-05 03:02:50.570 ,4,0,1.,4.8,0.,4.8,0.,4.8,0.,4.8
1979-08-05 03:02:55.370 ,4,0,1.,4.8,1.,4.8,0.,4.8,0.,4.8
1979-08-05 03:03:00.170 ,4,0,1.,4.8,1.,4.8,2.,4.8,0.,4.8
1979-08-05 03:03:04.970 ,4,0,1.,4.8,0.,4.8,0.,4.8,0.,4.8
1979-08-05 03:03:09.770 ,5,0,3.,4.8,0.,4.8,0.,4.8,0.,4.8
1979-08-05 03:03:14.570 ,5,0,0.,4.8,0.,4.8,0.,4.8,0.,4.8
1979-08-05 03:03:19.370 ,5,0,1.,4.8,0.,4.8,1.,4.8,0.,4.8
1979-08-05 03:03:24.170 ,5,0,0.,4.8,1.,4.8,1.,4.8,0.,4.8
1979-08-05 03:03:28.970 ,5,0,1.,4.8,1.,4.8,0.,4.8,0.,4.8
1979-08-05 03:03:33.770 ,5,0,1.,4.8,2.,4.8,0.,4.8,0.,4.8
1979-08-05 03:03:38.570 ,5,0,1.,4.8,0.,4.8,0.,4.8,0.,4.8
1979-08-05 03:03:43.370 ,5,0,3.,4.8,2.,4.8,0.,4.8,0.,4.8
1979-08-05 03:03:48.170 ,5,0,1.,4.8,0.,4.8,0.,4.8,0.,4.8
1979-08-05 03:03:52.970 ,5,0,1.,4.8,1.,4.8,1.,4.8,0.,4.8
1979-08-05 03:03:57.770 ,6,0,0.,4.8,2.,4.8,1.,4.8,0.,4.8
1979-08-05 03:04:02.570 ,6,0,2.,4.8,2.,4.8,1.,4.8,0.,4.8
1979-08-05 03:04:07.370 ,6,0,2.,4.8,0.,4.8,2.,4.8,0.,4.8
1979-08-05 03:04:12.170 ,6,0,1.,4.8,0.,4.8,0.,4.8,0.,4.8
1979-08-05 03:04:16.970 ,6,0,0.,4.8,0.,4.8,2.,4.8,0.,4.8
1979-08-05 03:04:21.770 ,6,0,1.,4.8,1.,4.8,0.,4.8,0.,4.8
1979-08-05 03:04:26.570 ,6,0,0.,4.8,0.,4.8,2.,4.8,0.,4.8
1979-08-05 03:04:31.370 ,6,0,1.,4.8,1.,4.8,0.,4.8,0.,4.8
1979-08-05 03:04:36.170 ,6,0,2.,4.8,0.,4.8,0.,4.8,0.,4.8
1979-08-05 03:04:40.970 ,6,0,0.,4.8,0.,4.8,1.,4.8,0.,4.8
1979-08-05 03:04:45.770 ,7,0,0.,4.8,0.,4.8,1.,4.8,0.,4.8
1979-08-05 03:04:50.570 ,7,0,2.,4.8,1.,4.8,0.,4.8,0.,4.8
1979-08-05 03:04:55.370 ,7,0,0.,4.8,0.,4.8,1.,4.8,0.,4.8
1979-08-05 03:05:00.170 ,7,0,1.,4.8,0.,4.8,0.,4.8,0.,4.8
1979-08-05 03:05:04.970 ,7,0,2.,4.8,0.,4.8,0.,4.8,0.,4.8
1979-08-05 03:05:09.770 ,7,0,2.,4.8,1.,4.8,0.,4.8,0.,4.8
1979-08-05 03:05:14.570 ,7,0,1.,4.8,2.,4.8,1.,4.8,0.,4.8
1979-08-05 03:05:19.370 ,7,0,1.,4.8,0.,4.8,1.,4.8,0.,4.8
1979-08-05 03:05:24.170 ,7,0,3.,4.8,0.,4.8,1.,4.8,0.,4.8
1979-08-05 03:05:28.970 ,7,0,2.,4.8,0.,4.8,0.,4.8,0.,4.8
1979-08-05 03:05:33.770 ,7,0,0.,4.8,0.,4.8,0.,4.8,0.,4.8
1979-08-05 03:05:38.570 ,7,0,2.,4.8,0.,4.8,1.,4.8,0.,4.8
1979-08-05 03:05:43.370 ,7,0,3.,4.8,0.,4.8,0.,4.8,0.,4.8
1979-08-05 03:05:48.170 ,7,0,1.,4.8,1.,4.8,1.,4.8,0.,4.8
1979-08-05 03:05:52.970 ,7,0,1.,4.8,2.,4.8,0.,4.8,0.,4.8
1979-08-05 03:05:57.770 ,7,0,2.,4.8,1.,4.8,1.,4.8,0.,4.8
1979-08-05 03:06:02.570 ,7,0,1.,4.8,1.,4.8,0.,4.8,0.,4.8
1979-08-05 03:06:07.370 ,7,0,0.,4.8,0.,4.8,0.,4.8,0.,4.8
1979-08-05 03:06:12.170 ,7,0,1.,4.8,0.,4.8,0.,4.8,0.,4.8
1979-08-05 03:06:16.970 ,7,0,1.,4.8,1.,4.8,0.,4.8,0.,4.8
1979-08-05 03:06:21.770 ,6,0,4.,4.8,2.,4.8,2.,4.8,0.,4.8
1979-08-05 03:06:26.570 ,6,0,2.,4.8,0.,4.8,0.,4.8,0.,4.8
1979-08-05 03:06:31.370 ,6,0,4.,4.8,0.,4.8,2.,4.8,0.,4.8
1979-08-05 03:06:36.170 ,6,0,2.,4.8,0.,4.8,3.,4.8,0.,4.8
1979-08-05 03:06:40.970 ,6,0,2.,4.8,0.,4.8,0.,4.8,0.,4.8
1979-08-05 03:06:45.770 ,6,0,0.,4.8,2.,4.8,0.,4.8,0.,4.8
1979-08-05 03:06:50.570 ,6,0,3.,4.8,0.,4.8,2.,4.8,0.,4.8
1979-08-05 03:06:55.370 ,6,0,1.,4.8,0.,4.8,2.,4.8,0.,4.8
1979-08-05 03:07:00.170 ,6,0,0.,4.8,0.,4.8,0.,4.8,0.,4.8
1979-08-05 03:07:04.970 ,6,0,2.,4.8,1.,4.8,0.,4.8,0.,4.8
1979-08-05 03:07:09.770 ,5,0,1.,4.8,3.,4.8,1.,4.8,0.,4.8
1979-08-05 03:07:14.570 ,5,0,1.,4.8,0.,4.8,0.,4.8,0.,4.8
1979-08-05 03:07:19.370 ,5,0,2.,4.8,1.,4.8,0.,4.8,0.,4.8
1979-08-05 03:07:24.170 ,5,0,1.,4.8,0.,4.8,2.,4.8,0.,4.8
1979-08-05 03:07:28.970 ,5,0,2.,4.8,0.,4.8,0.,4.8,0.,4.8
1979-08-05 03:07:33.770 ,5,0,1.,4.8,0.,4.8,0.,4.8,0.,4.8
1979-08-05 03:07:38.570 ,5,0,1.,4.8,1.,4.8,0.,4.8,0.,4.8
1979-08-05 03:07:43.370 ,5,0,1.,4.8,1.,4.8,1.,4.8,0.,4.8
1979-08-05 03:07:48.170 ,5,0,3.,4.8,1.,4.8,0.,4.8,0.,4.8
1979-08-05 03:07:52.970 ,5,0,0.,4.8,1.,4.8,1.,4.8,0.,4.8
1979-08-05 03:07:57.770 ,4,0,1.,4.8,0.,4.8,1.,4.8,0.,4.8
1979-08-05 03:08:02.570 ,4,0,0.,4.8,1.,4.8,2.,4.8,0.,4.8
1979-08-05 03:08:07.370 ,4,0,1.,4.8,1.,4.8,2.,4.8,0.,4.8
1979-08-05 03:08:12.170 ,4,0,0.,4.8,1.,4.8,0.,4.8,0.,4.8
1979-08-05 03:08:16.970 ,4,0,1.,4.8,1.,4.8,0.,4.8,0.,4.8
1979-08-05 03:08:21.770 ,0,0,1.,4.8,0.,4.8,0.,4.8,0.,4.8
1979-08-05 03:08:26.570 ,0,0,4.,4.8,0.,4.8,0.,4.8,0.,4.8
1979-08-05 03:08:31.370 ,0,0,,0,,0,,0,,0
1979-08-05 03:08:36.170 ,0,0,,0,,0,,0,,0
1979-08-05 03:08:40.970 ,0,0,,0,,0,,0,,0
1979-08-05 03:08:30.770 ,0,0,,0,,0,,0,,0
1979-08-05 03:08:35.570 ,0,0,,0,,0,,0,,0
1979-08-05 03:08:40.370 ,0,0,1.,4.8,0.,4.8,2.,4.8,0.,4.8
1979-08-05 03:08:45.170 ,0,0,3.,4.8,1.,4.8,1.,4.8,0.,4.8
1979-08-05 03:08:49.970 ,0,0,3.,4.8,1.,4.8,1.,4.8,0.,4.8
1979-08-05 03:08:45.770 ,3,0,1.,4.8,0.,4.8,2.,4.8,0.,4.8
1979-08-05 03:08:50.570 ,3,0,0.,4.8,3.,4.8,0.,4.8,0.,4.8
1979-08-05 03:08:55.370 ,3,0,0.,4.8,0.,4.8,0.,4.8,0.,4.8
1979-08-05 03:09:00.170 ,3,0,2.,4.8,0.,4.8,0.,4.8,0.,4.8
1979-08-05 03:09:04.970 ,3,0,1.,4.8,0.,4.8,0.,4.8,0.,4.8
1979-08-05 03:09:09.770 ,3,0,1.,4.8,0.,4.8,1.,4.8,0.,4.8
1979-08-05 03:09:14.570 ,3,0,1.,4.8,0.,4.8,2.,4.8,0.,4.8
1979-08-05 03:09:19.370 ,3,0,4.,4.8,0.,4.8,2.,4.8,0.,4.8
1979-08-05 03:09:24.170 ,3,0,0.,4.8,1.,4.8,0.,4.8,0.,4.8
1979-08-05 03:09:28.970 ,3,0,2.,4.8,0.,4.8,1.,4.8,0.,4.8
1979-08-05 03:09:33.770 ,2,0,1.,4.8,0.,4.8,0.,4.8,0.,4.8
1979-08-05 03:09:38.570 ,2,0,2.,4.8,0.,4.8,0.,4.8,0.,4.8
1979-08-05 03:09:43.370 ,2,0,5.,4.8,1.,4.8,2.,4.8,0.,4.8
1979-08-05 03:09:48.170 ,2,0,4.,4.8,0.,4.8,0.,4.8,0.,4.8
1979-08-05 03:09:52.970 ,2,0,0.,4.8,0.,4.8,0.,4.8,0.,4.8
1979-08-05 03:09:57.770 ,2,0,1.,4.8,0.,4.8,0.,4.8,0.,4.8
1979-08-05 03:10:02.570 ,2,0,3.,4.8,1.,4.8,1.,4.8,0.,4.8
1979-08-05 03:10:07.370 ,2,0,2.,4.8,0.,4.8,2.,4.8,0.,4.8
1979-08-05 03:10:12.170 ,2,0,2.,4.8,0.,4.8,1.,4.8,0.,4.8
1979-08-05 03:10:16.970 ,2,0,0.,4.8,0.,4.8,1.,4.8,0.,4.8
1979-08-05 03:10:21.770 ,1,0,2.,4.8,1.,4.8,0.,4.8,0.,4.8
1979-08-05 03:10:26.570 ,1,0,4.,4.8,1.,4.8,2.,4.8,0.,4.8
1979-08-05 03:10:31.370 ,1,0,2.,4.8,1.,4.8,2.,4.8,0.,4.8
1979-08-05 03:10:36.170 ,1,0,2.,4.8,0.,4.8,0.,4.8,0.,4.8
1979-08-05 03:10:40.970 ,1,0,2.,4.8,0.,4.8,0.,4.8,0.,4.8
1979-08-05 03:10:45.770 ,1,0,1.,4.8,2.,4.8,2.,4.8,0.,4.8
1979-08-05 03:10:50.570 ,1,0,2.,4.8,0.,4.8,0.,4.8,0.,4.8
1979-08-05 03:10:55.370 ,1,0,2.,4.8,0.,4.8,1.,4.8,0.,4.8
1979-08-05 03:11:00.170 ,1,0,2.,4.8,1.,4.8,0.,4.8,0.,4.8
1979-08-05 03:11:04.970 ,1,0,3.,4.8,0.,4.8,1.,4.8,0.,4.8
1979-08-05 03:11:09.770 ,0,0,4.,4.8,3.,4.8,0.,4.8,0.,4.8
1979-08-05 03:11:14.570 ,0,0,1.,4.8,1.,4.8,1.,4.8,0.,4.8
1979-08-05 03:11:19.370 ,0,0,1.,4.8,1.,4.8,0.,4.8,0.,4.8
1979-08-05 03:11:24.170 ,0,0,1.,4.8,0.,4.8,0.,4.8,0.,4.8
1979-08-05 03:11:28.970 ,0,0,3.,4.8,1.,4.8,0.,4.8,0.,4.8
1979-08-05 03:11:33.770 ,0,0,3.,4.8,2.,4.8,3.,4.8,0.,4.8
1979-08-05 03:11:38.570 ,0,0,2.,4.8,1.,4.8,0.,4.8,0.,4.8
1979-08-05 03:11:43.370 ,0,0,3.,4.8,0.,4.8,0.,4.8,0.,4.8
1979-08-05 03:11:48.170 ,0,0,0.,4.8,1.,4.8,0.,4.8,0.,4.8
1979-08-05 03:11:52.970 ,0,0,3.,4.8,1.,4.8,0.,4.8,0.,4.8
1979-08-05 03:11:57.770 ,0,0,1.,4.8,0.,4.8,1.,4.8,0.,4.8
1979-08-05 03:12:02.570 ,0,0,1.,4.8,0.,4.8,0.,4.8,0.,4.8
1979-08-05 03:12:07.370 ,0,0,1.,4.8,1.,4.8,0.,4.8,0.,4.8
1979-08-05 03:12:12.170 ,0,0,2.,4.8,1.,4.8,1.,4.8,0.,4.8
1979-08-05 03:12:16.970 ,0,0,0.,4.8,1.,4.8,0.,4.8,0.,4.8
1979-08-05 03:12:21.770 ,0,0,2.,4.8,0.,4.8,0.,4.8,0.,4.8
1979-08-05 03:12:26.570 ,0,0,1.,4.8,1.,4.8,1.,4.8,0.,4.8
1979-08-05 03:12:31.370 ,0,0,0.,4.8,1.,4.8,3.,4.8,0.,4.8
1979-08-05 03:12:36.170 ,0,0,3.,4.8,0.,4.8,0.,4.8,0.,4.8
1979-08-05 03:12:40.970 ,0,0,2.,4.8,0.,4.8,0.,4.8,0.,4.8
1979-08-05 03:12:45.770 ,1,0,2.,4.8,1.,4.8,0.,4.8,0.,4.8
1979-08-05 03:12:50.570 ,1,0,5.,4.8,1.,4.8,1.,4.8,0.,4.8
1979-08-05 03:12:55.370 ,1,0,2.,4.8,1.,4.8,2.,4.8,0.,4.8
1979-08-05 03:13:00.170 ,1,0,1.,4.8,0.,4.8,0.,4.8,0.,4.8
1979-08-05 03:13:04.970 ,1,0,1.,4.8,1.,4.8,1.,4.8,0.,4.8
1979-08-05 03:13:09.770 ,1,0,3.,4.8,1.,4.8,0.,4.8,0.,4.8
1979-08-05 03:13:14.570 ,1,0,2.,4.8,0.,4.8,0.,4.8,0.,4.8
1979-08-05 03:13:19.370 ,1,0,3.,4.8,1.,4.8,0.,4.8,0.,4.8
1979-08-05 03:13:24.170 ,1,0,3.,4.8,1.,4.8,0.,4.8,0.,4.8
1979-08-05 03:13:28.970 ,1,0,1.,4.8,0.,4.8,1.,4.8,0.,4.8
1979-08-05 03:13:33.770 ,2,0,1.,4.8,0.,4.8,0.,4.8,0.,4.8
1979-08-05 03:13:38.570 ,2,0,5.,4.8,0.,4.8,2.,4.8,0.,4.8
1979-08-05 03:13:43.370 ,2,0,3.,4.8,0.,4.8,0.,4.8,0.,4.8
1979-08-05 03:13:48.170 ,2,0,3.,4.8,1.,4.8,0.,4.8,0.,4.8
1979-08-05 03:13:52.970 ,2,0,4.,4.8,1.,4.8,0.,4.8,0.,4.8
1979-08-05 03:13:57.770 ,2,0,5.,4.8,2.,4.8,3.,4.8,0.,4.8
1979-08-05 03:14:02.570 ,2,0,4.,4.8,0.,4.8,0.,4.8,0.,4.8
1979-08-05 03:14:07.370 ,2,0,5.,4.8,0.,4.8,0.,4.8,0.,4.8
1979-08-05 03:14:12.170 ,2,0,0.,4.8,1.,4.8,2.,4.8,0.,4.8
1979-08-05 03:14:16.970 ,2,0,0.,4.8,1.,4.8,2.,4.8,0.,4.8
1979-08-05 03:14:21.770 ,3,0,2.,4.8,1.,4.8,0.,4.8,0.,4.8
1979-08-05 03:14:26.570 ,3,0,3.,4.8,0.,4.8,0.,4.8,0.,4.8
1979-08-05 03:14:31.370 ,3,0,0.,4.8,0.,4.8,1.,4.8,0.,4.8
1979-08-05 03:14:36.170 ,3,0,3.,4.8,0.,4.8,1.,4.8,0.,4.8
1979-08-05 03:14:40.970 ,3,0,0.,4.8,0.,4.8,2.,4.8,0.,4.8
1979-08-05 03:14:45.770 ,3,0,1.,4.8,0.,4.8,0.,4.8,0.,4.8
1979-08-05 03:14:50.570 ,3,0,0.,4.8,0.,4.8,0.,4.8,0.,4.8
1979-08-05 03:14:55.370 ,3,0,2.,4.8,1.,4.8,0.,4.8,0.,4.8
1979-08-05 03:15:00.170 ,3,0,4.,4.8,0.,4.8,0.,4.8,0.,4.8
1979-08-05 03:15:04.970 ,3,0,1.,4.8,0.,4.8,2.,4.8,0.,4.8
1979-08-05 03:15:09.770 ,4,0,2.,4.8,0.,4.8,1.,4.8,0.,4.8
1979-08-05 03:15:14.570 ,4,0,3.,4.8,0.,4.8,0.,4.8,0.,4.8
1979-08-05 03:15:19.370 ,4,0,0.,4.8,0.,4.8,0.,4.8,0.,4.8
1979-08-05 03:15:24.170 ,4,0,1.,4.8,0.,4.8,0.,4.8,0.,4.8
1979-08-05 03:15:28.970 ,4,0,1.,4.8,1.,4.8,1.,4.8,0.,4.8
1979-08-05 03:15:33.770 ,4,0,1.,4.8,0.,4.8,0.,4.8,0.,4.8
1979-08-05 03:15:38.570 ,4,0,1.,4.8,1.,4.8,0.,4.8,0.,4.8
1979-08-05 03:15:43.370 ,4,0,4.,4.8,0.,4.8,1.,4.8,0.,4.8
1979-08-05 03:15:48.170 ,4,0,0.,4.8,0.,4.8,1.,4.8,0.,4.8
1979-08-05 03:15:52.970 ,4,0,3.,4.8,0.,4.8,0.,4.8,0.,4.8
1979-08-05 03:15:57.770 ,5,0,3.,4.8,0.,4.8,0.,4.8,0.,4.8
1979-08-05 03:16:02.570 ,5,0,1.,4.8,0.,4.8,0.,4.8,0.,4.8
1979-08-05 03:16:07.370 ,5,0,0.,4.8,0.,4.8,0.,4.8,0.,4.8
1979-08-05 03:16:12.170 ,5,0,0.,4.8,1.,4.8,0.,4.8,0.,4.8
1979-08-05 03:16:16.970 ,5,0,2.,4.8,0.,4.8,2.,4.8,0.,4.8
1979-08-05 03:16:21.770 ,5,0,1.,4.8,1.,4.8,0.,4.8,0.,4.8
1979-08-05 03:16:26.570 ,5,0,2.,4.8,0.,4.8,0.,4.8,0.,4.8
1979-08-05 03:16:31.370 ,5,0,3.,4.8,0.,4.8,2.,4.8,0.,4.8
1979-08-05 03:16:36.170 ,5,0,0.,4.8,1.,4.8,0.,4.8,0.,4.8
1979-08-05 03:16:40.970 ,5,0,2.,4.8,2.,4.8,1.,4.8,0.,4.8
1979-08-05 03:16:45.770 ,6,0,0.,4.8,0.,4.8,1.,4.8,0.,4.8
1979-08-05 03:16:50.570 ,6,0,0.,4.8,0.,4.8,0.,4.8,0.,4.8
1979-08-05 03:16:55.370 ,6,0,4.,4.8,2.,4.8,0.,4.8,0.,4.8
1979-08-05 03:17:00.170 ,6,0,1.,4.8,1.,4.8,1.,4.8,0.,4.8
1979-08-05 03:17:04.970 ,6,0,1.,4.8,0.,4.8,0.,4.8,0.,4.8
1979-08-05 03:17:09.770 ,6,0,1.,4.8,3.,4.8,0.,4.8,0.,4.8
1979-08-05 03:17:14.570 ,6,0,0.,4.8,1.,4.8,0.,4.8,0.,4.8
1979-08-05 03:17:19.370 ,6,0,3.,4.8,3.,4.8,1.,4.8,0.,4.8
1979-08-05 03:17:24.170 ,6,0,1.,4.8,0.,4.8,0.,4.8,0.,4.8
1979-08-05 03:17:28.970 ,6,0,0.,4.8,0.,4.8,0.,4.8,0.,4.8
1979-08-05 03:17:33.770 ,7,0,1.,4.8,0.,4.8,1.,4.8,0.,4.8
1979-08-05 03:17:38.570 ,7,0,4.,4.8,0.,4.8,0.,4.8,0.,4.8
1979-08-05 03:17:43.370 ,7,0,1.,4.8,0.,4.8,0.,4.8,0.,4.8
1979-08-05 03:17:48.170 ,7,0,0.,4.8,1.,4.8,1.,4.8,0.,4.8
1979-08-05 03:17:52.970 ,7,0,0.,4.8,1.,4.8,1.,4.8,0.,4.8
1979-08-05 03:17:57.770 ,7,0,2.,4.8,1.,4.8,2.,4.8,0.,4.8
1979-08-05 03:18:02.570 ,7,0,0.,4.8,0.,4.8,0.,4.8,0.,4.8
1979-08-05 03:18:07.370 ,7,0,3.,4.8,0.,4.8,0.,4.8,0.,4.8
1979-08-05 03:18:12.170 ,7,0,2.,4.8,0.,4.8,0.,4.8,0.,4.8
1979-08-05 03:18:16.970 ,7,0,0.,4.8,0.,4.8,1.,4.8,0.,4.8
1979-08-05 03:18:21.770 ,7,0,2.,4.8,0.,4.8,1.,4.8,0.,4.8
1979-08-05 03:18:26.570 ,7,0,3.,4.8,0.,4.8,0.,4.8,0.,4.8
1979-08-05 03:18:31.370 ,7,0,1.,4.8,0.,4.8,1.,4.8,0.,4.8
1979-08-05 03:18:36.170 ,7,0,0.,4.8,1.,4.8,0.,4.8,0.,4.8
1979-08-05 03:18:40.970 ,7,0,1.,4.8,1.,4.8,1.,4.8,0.,4.8
1979-08-05 03:18:45.770 ,7,0,3.,4.8,0.,4.8,0.,4.8,0.,4.8
1979-08-05 03:18:50.570 ,7,0,3.,4.8,1.,4.8,1.,4.8,0.,4.8
1979-08-05 03:18:55.370 ,7,0,1.,4.8,0.,4.8,0.,4.8,0.,4.8
1979-08-05 03:19:00.170 ,7,0,4.,4.8,1.,4.8,2.,4.8,0.,4.8
1979-08-05 03:19:04.970 ,7,0,0.,4.8,1.,4.8,0.,4.8,0.,4.8
1979-08-05 03:19:09.770 ,6,0,2.,4.8,0.,4.8,0.,4.8,0.,4.8
1979-08-05 03:19:14.570 ,6,0,1.,4.8,0.,4.8,0.,4.8,0.,4.8
1979-08-05 03:19:19.370 ,6,0,1.,4.8,2.,4.8,0.,4.8,0.,4.8
1979-08-05 03:19:24.170 ,6,0,0.,4.8,0.,4.8,0.,4.8,0.,4.8
1979-08-05 03:19:28.970 ,6,0,3.,4.8,0.,4.8,1.,4.8,0.,4.8
1979-08-05 03:19:33.770 ,6,0,0.,4.8,0.,4.8,0.,4.8,0.,4.8
1979-08-05 03:19:38.570 ,6,0,0.,4.8,1.,4.8,2.,4.8,0.,4.8
1979-08-05 03:19:43.370 ,6,0,3.,4.8,0.,4.8,1.,4.8,0.,4.8
1979-08-05 03:19:48.170 ,6,0,2.,4.8,3.,4.8,1.,4.8,0.,4.8
1979-08-05 03:19:52.970 ,6,0,0.,4.8,1.,4.8,2.,4.8,0.,4.8
1979-08-05 03:19:57.770 ,5,0,2.,4.8,0.,4.8,1.,4.8,0.,4.8
1979-08-05 03:20:02.570 ,5,0,1.,4.8,1.,4.8,1.,4.8,0.,4.8
1979-08-05 03:20:07.370 ,5,0,0.,4.8,2.,4.8,0.,4.8,0.,4.8
1979-08-05 03:20:12.170 ,5,0,1.,4.8,2.,4.8,0.,4.8,0.,4.8
1979-08-05 03:20:16.970 ,5,0,1.,4.8,2.,4.8,4.,4.8,0.,4.8
1979-08-05 03:20:21.770 ,5,0,0.,4.8,1.,4.8,2.,4.8,0.,4.8
1979-08-05 03:20:26.570 ,5,0,6.,4.8,1.,4.8,0.,4.8,0.,4.8
1979-08-05 03:20:31.370 ,5,0,3.,4.8,0.,4.8,1.,4.8,0.,4.8
1979-08-05 03:20:36.170 ,5,0,1.,4.8,0.,4.8,0.,4.8,0.,4.8
1979-08-05 03:20:40.970 ,5,0,3.,4.8,1.,4.8,1.,4.8,0.,4.8
1979-08-05 03:20:45.770 ,4,0,0.,4.8,0.,4.8,0.,4.8,0.,4.8
1979-08-05 03:20:50.570 ,4,0,2.,4.8,1.,4.8,1.,4.8,0.,4.8
1979-08-05 03:20:55.370 ,4,0,2.,4.8,1.,4.8,1.,4.8,0.,4.8
1979-08-05 03:21:00.170 ,4,0,3.,4.8,1.,4.8,0.,4.8,0.,4.8
1979-08-05 03:21:04.970 ,4,0,0.,4.8,0.,4.8,0.,4.8,0.,4.8
1979-08-05 03:21:09.770 ,0,0,1.,4.8,0.,4.8,0.,4.8,0.,4.8
1979-08-05 03:21:14.570 ,0,0,0.,4.8,2.,4.8,0.,4.8,0.,4.8
1979-08-05 03:21:19.370 ,0,0,3.,4.8,0.,4.8,2.,4.8,0.,4.8
1979-08-05 03:21:24.170 ,0,0,2.,4.8,2.,4.8,2.,4.8,0.,4.8
1979-08-05 03:21:28.970 ,0,0,1.,4.8,2.,4.8,0.,4.8,0.,4.8
1979-08-05 03:21:33.770 ,3,0,1.,4.8,2.,4.8,1.,4.8,0.,4.8
1979-08-05 03:21:38.570 ,3,0,0.,4.8,1.,4.8,2.,4.8,0.,4.8
1979-08-05 03:21:43.370 ,3,0,2.,4.8,0.,4.8,0.,4.8,0.,4.8
1979-08-05 03:21:48.170 ,3,0,2.,4.8,0.,4.8,0.,4.8,0.,4.8
1979-08-05 03:21:52.970 ,3,0,0.,4.8,1.,4.8,0.,4.8,0.,4.8
1979-08-05 03:21:57.770 ,3,0,1.,4.8,1.,4.8,0.,4.8,0.,4.8
1979-08-05 03:22:02.570 ,3,0,1.,4.8,0.,4.8,0.,4.8,0.,4.8
1979-08-05 03:22:07.370 ,3,0,2.,4.8,0.,4.8,0.,4.8,0.,4.8
1979-08-05 03:22:12.170 ,3,0,2.,4.8,0.,4.8,0.,4.8,0.,4.8
1979-08-05 03:22:16.970 ,3,0,2.,4.8,0.,4.8,0.,4.8,0.,4.8
1979-08-05 03:22:21.770 ,2,0,1.,4.8,0.,4.8,0.,4.8,0.,4.8
1979-08-05 03:22:26.570 ,2,0,3.,4.8,1.,4.8,0.,4.8,0.,4.8
1979-08-05 03:22:31.370 ,2,0,0.,4.8,0.,4.8,0.,4.8,0.,4.8
1979-08-05 03:22:36.170 ,2,0,3.,4.8,1.,4.8,0.,4.8,0.,4.8
1979-08-05 03:22:40.970 ,2,0,1.,4.8,3.,4.8,1.,4.8,0.,4.8
1979-08-05 03:22:45.770 ,2,0,2.,4.8,0.,4.8,0.,4.8,0.,4.8
1979-08-05 03:22:50.570 ,2,0,1.,4.8,1.,4.8,0.,4.8,0.,4.8
1979-08-05 03:22:55.370 ,2,0,2.,4.8,0.,4.8,0.,4.8,0.,4.8
1979-08-05 03:23:00.170 ,2,0,2.,4.8,0.,4.8,0.,4.8,0.,4.8
1979-08-05 03:23:04.970 ,2,0,3.,4.8,0.,4.8,2.,4.8,0.,4.8
1979-08-05 03:23:09.770 ,1,0,2.,4.8,2.,4.8,0.,4.8,0.,4.8
1979-08-05 03:23:14.570 ,1,0,3.,4.8,0.,4.8,0.,4.8,1.,4.8
1979-08-05 03:23:19.370 ,1,0,3.,4.8,0.,4.8,2.,4.8,0.,4.8
1979-08-05 03:23:24.170 ,1,0,6.,4.8,1.,4.8,0.,4.8,0.,4.8
1979-08-05 03:23:28.970 ,1,0,4.,4.8,0.,4.8,0.,4.8,0.,4.8
1979-08-05 03:23:33.770 ,1,0,8.,4.8,1.,4.8,1.,4.8,0.,4.8
1979-08-05 03:23:38.570 ,1,0,1.,4.8,0.,4.8,0.,4.8,0.,4.8
1979-08-05 03:23:43.370 ,1,0,3.,4.8,0.,4.8,1.,4.8,0.,4.8
1979-08-05 03:23:48.170 ,1,0,3.,4.8,2.,4.8,1.,4.8,0.,4.8
1979-08-05 03:23:52.970 ,1,0,2.,4.8,0.,4.8,0.,4.8,0.,4.8
1979-08-05 03:23:57.770 ,0,0,0.,4.8,0.,4.8,1.,4.8,0.,4.8
1979-08-05 03:24:02.570 ,0,0,1.,4.8,0.,4.8,1.,4.8,0.,4.8
1979-08-05 03:24:07.370 ,0,0,1.,4.8,1.,4.8,1.,4.8,0.,4.8
1979-08-05 03:24:12.170 ,0,0,2.,4.8,0.,4.8,1.,4.8,0.,4.8
1979-08-05 03:24:16.970 ,0,0,1.,4.8,0.,4.8,2.,4.8,0.,4.8
1979-08-05 03:24:21.770 ,0,0,3.,4.8,0.,4.8,0.,4.8,0.,4.8
1979-08-05 03:24:26.570 ,0,0,0.,4.8,1.,4.8,1.,4.8,0.,4.8
1979-08-05 03:24:31.370 ,0,0,1.,4.8,1.,4.8,0.,4.8,0.,4.8
1979-08-05 03:24:36.170 ,0,0,3.,4.8,1.,4.8,0.,4.8,0.,4.8
1979-08-05 03:24:40.970 ,0,0,2.,4.8,0.,4.8,0.,4.8,0.,4.8
1979-08-05 03:24:45.770 ,0,0,2.,4.8,0.,4.8,2.,4.8,0.,4.8
1979-08-05 03:24:50.570 ,0,0,4.,4.8,0.,4.8,2.,4.8,0.,4.8
1979-08-05 03:24:55.370 ,0,0,2.,4.8,2.,4.8,1.,4.8,0.,4.8
1979-08-05 03:25:00.170 ,0,0,4.,4.8,0.,4.8,1.,4.8,0.,4.8
1979-08-05 03:25:04.970 ,0,0,0.,4.8,0.,4.8,1.,4.8,0.,4.8
1979-08-05 03:25:09.770 ,0,0,0.,4.8,2.,4.8,2.,4.8,0.,4.8
1979-08-05 03:25:14.570 ,0,0,2.,4.8,2.,4.8,2.,4.8,0.,4.8
1979-08-05 03:25:19.370 ,0,0,8.,4.8,1.,4.8,0.,4.8,0.,4.8
1979-08-05 03:25:24.170 ,0,0,4.,4.8,1.,4.8,1.,4.8,0.,4.8
1979-08-05 03:25:28.970 ,0,0,2.,4.8,0.,4.8,0.,4.8,0.,4.8
1979-08-05 03:25:33.770 ,1,0,1.,4.8,2.,4.8,1.,4.8,0.,4.8
1979-08-05 03:25:38.570 ,1,0,0.,4.8,0.,4.8,0.,4.8,0.,4.8
1979-08-05 03:25:43.370 ,1,0,2.,4.8,1.,4.8,2.,4.8,0.,4.8
1979-08-05 03:25:48.170 ,1,0,0.,4.8,1.,4.8,0.,4.8,0.,4.8
1979-08-05 03:25:52.970 ,1,0,0.,4.8,0.,4.8,0.,4.8,0.,4.8
1979-08-05 03:25:57.770 ,1,0,1.,4.8,0.,4.8,0.,4.8,0.,4.8
1979-08-05 03:26:02.570 ,1,0,2.,4.8,0.,4.8,0.,4.8,0.,4.8
1979-08-05 03:26:07.370 ,1,0,2.,4.8,0.,4.8,1.,4.8,0.,4.8
1979-08-05 03:26:12.170 ,1,0,1.,4.8,0.,4.8,2.,4.8,0.,4.8
1979-08-05 03:26:16.970 ,1,0,2.,4.8,0.,4.8,2.,4.8,0.,4.8
1979-08-05 03:26:21.770 ,2,0,1.,4.8,1.,4.8,1.,4.8,0.,4.8
1979-08-05 03:26:26.570 ,2,0,0.,4.8,0.,4.8,1.,4.8,0.,4.8
1979-08-05 03:26:31.370 ,2,0,1.,4.8,3.,4.8,0.,4.8,0.,4.8
1979-08-05 03:26:36.170 ,2,0,2.,4.8,0.,4.8,0.,4.8,0.,4.8
1979-08-05 03:26:40.970 ,2,0,0.,4.8,1.,4.8,2.,4.8,0.,4.8
1979-08-05 03:26:45.770 ,2,0,2.,4.8,0.,4.8,2.,4.8,0.,4.8
1979-08-05 03:26:50.570 ,2,0,3.,4.8,0.,4.8,0.,4.8,0.,4.8
1979-08-05 03:26:55.370 ,2,0,0.,4.8,0.,4.8,0.,4.8,0.,4.8
1979-08-05 03:27:00.170 ,2,0,0.,4.8,0.,4.8,0.,4.8,0.,4.8
1979-08-05 03:27:04.970 ,2,0,0.,4.8,1.,4.8,0.,4.8,0.,4.8
1979-08-05 03:27:09.770 ,3,0,1.,4.8,1.,4.8,0.,4.8,0.,4.8
1979-08-05 03:27:14.570 ,3,0,2.,4.8,0.,4.8,1.,4.8,0.,4.8
1979-08-05 03:27:19.370 ,3,0,0.,4.8,0.,4.8,0.,4.8,0.,4.8
1979-08-05 03:27:24.170 ,3,0,2.,4.8,0.,4.8,0.,4.8,0.,4.8
1979-08-05 03:27:28.970 ,3,0,2.,4.8,0.,4.8,0.,4.8,0.,4.8
1979-08-05 03:27:33.770 ,3,0,0.,4.8,0.,4.8,1.,4.8,0.,4.8
1979-08-05 03:27:38.570 ,3,0,1.,4.8,1.,4.8,0.,4.8,0.,4.8
1979-08-05 03:27:43.370 ,3,0,1.,4.8,0.,4.8,0.,4.8,0.,4.8
1979-08-05 03:27:48.170 ,3,0,3.,4.8,0.,4.8,0.,4.8,0.,4.8
1979-08-05 03:27:52.970 ,3,0,1.,4.8,0.,4.8,1.,4.8,0.,4.8
1979-08-05 03:27:57.770 ,4,0,5.,4.8,0.,4.8,0.,4.8,0.,4.8
1979-08-05 03:28:02.570 ,4,0,3.,4.8,0.,4.8,2.,4.8,0.,4.8
1979-08-05 03:28:07.370 ,4,0,1.,4.8,1.,4.8,0.,4.8,0.,4.8
1979-08-05 03:28:12.170 ,4,0,4.,4.8,1.,4.8,2.,4.8,0.,4.8
1979-08-05 03:28:16.970 ,4,0,1.,4.8,0.,4.8,2.,4.8,0.,4.8
1979-08-05 03:28:21.770 ,4,0,2.,4.8,0.,4.8,0.,4.8,0.,4.8
1979-08-05 03:28:26.570 ,4,0,1.,4.8,0.,4.8,0.,4.8,0.,4.8
1979-08-05 03:28:31.370 ,4,0,1.,4.8,0.,4.8,0.,4.8,0.,4.8
1979-08-05 03:28:36.170 ,4,0,3.,4.8,0.,4.8,1.,4.8,0.,4.8
1979-08-05 03:28:40.970 ,4,0,2.,4.8,3.,4.8,2.,4.8,0.,4.8
1979-08-05 03:28:45.770 ,5,0,2.,4.8,0.,4.8,2.,4.8,0.,4.8
1979-08-05 03:28:50.570 ,5,0,1.,4.8,2.,4.8,0.,4.8,0.,4.8
1979-08-05 03:28:55.370 ,5,0,3.,4.8,2.,4.8,1.,4.8,0.,4.8
1979-08-05 03:29:00.170 ,5,0,0.,4.8,0.,4.8,0.,4.8,0.,4.8
1979-08-05 03:29:04.970 ,5,0,1.,4.8,0.,4.8,0.,4.8,0.,4.8
1979-08-05 03:29:09.770 ,5,0,4.,4.8,0.,4.8,1.,4.8,0.,4.8
1979-08-05 03:29:14.570 ,5,0,4.,4.8,0.,4.8,0.,4.8,1.,4.8
1979-08-05 03:29:19.370 ,5,0,2.,4.8,0.,4.8,0.,4.8,0.,4.8
1979-08-05 03:29:24.170 ,5,0,2.,4.8,2.,4.8,0.,4.8,0.,4.8
1979-08-05 03:29:28.970 ,5,0,2.,4.8,1.,4.8,0.,4.8,0.,4.8
1979-08-05 03:29:33.770 ,6,0,2.,4.8,0.,4.8,1.,4.8,0.,4.8
1979-08-05 03:29:38.570 ,6,0,6.,4.8,0.,4.8,1.,4.8,0.,4.8
1979-08-05 03:29:43.370 ,6,0,0.,4.8,0.,4.8,0.,4.8,0.,4.8
1979-08-05 03:29:48.170 ,6,0,2.,4.8,0.,4.8,1.,4.8,0.,4.8
1979-08-05 03:29:52.970 ,6,0,0.,4.8,0.,4.8,0.,4.8,0.,4.8
1979-08-05 03:29:57.770 ,6,0,2.,4.8,0.,4.8,0.,4.8,0.,4.8
1979-08-05 03:30:02.570 ,6,0,2.,4.8,1.,4.8,3.,4.8,0.,4.8
1979-08-05 03:30:07.370 ,6,0,0.,4.8,0.,4.8,2.,4.8,0.,4.8
1979-08-05 03:30:12.170 ,6,0,1.,4.8,1.,4.8,0.,4.8,0.,4.8
1979-08-05 03:30:16.970 ,6,0,2.,4.8,0.,4.8,0.,4.8,0.,4.8
1979-08-05 03:30:21.770 ,7,0,0.,4.8,0.,4.8,0.,4.8,0.,4.8
1979-08-05 03:30:26.570 ,7,0,0.,4.8,1.,4.8,2.,4.8,0.,4.8
1979-08-05 03:30:31.370 ,7,0,3.,4.8,1.,4.8,0.,4.8,0.,4.8
1979-08-05 03:30:36.170 ,7,0,1.,4.8,2.,4.8,1.,4.8,0.,4.8
1979-08-05 03:30:40.970 ,7,0,1.,4.8,0.,4.8,0.,4.8,0.,4.8
1979-08-05 03:30:45.770 ,7,0,1.,4.8,0.,4.8,1.,4.8,0.,4.8
1979-08-05 03:30:50.570 ,7,0,2.,4.8,1.,4.8,0.,4.8,0.,4.8
1979-08-05 03:30:55.370 ,7,0,2.,4.8,0.,4.8,0.,4.8,0.,4.8
1979-08-05 03:31:00.170 ,7,0,0.,4.8,0.,4.8,1.,4.8,0.,4.8
1979-08-05 03:31:04.970 ,7,0,0.,4.8,0.,4.8,0.,4.8,0.,4.8
1979-08-05 03:31:09.770 ,3,1,3.,4.8,0.,4.8,0.,4.8,0.,4.8
1979-08-05 03:31:14.570 ,3,1,2.,4.8,1.,4.8,0.,4.8,0.,4.8
1979-08-05 03:31:19.370 ,3,1,1.,4.8,1.,4.8,0.,4.8,0.,4.8
1979-08-05 03:31:24.170 ,3,1,0.,4.8,0.,4.8,1.,4.8,0.,4.8
1979-08-05 03:31:28.970 ,3,1,4.,4.8,0.,4.8,0.,4.8,0.,4.8
1979-08-05 03:31:33.770 ,0,1,1.,4.8,1.,4.8,2.,4.8,0.,4.8
1979-08-05 03:31:38.570 ,0,1,3.,4.8,0.,4.8,0.,4.8,0.,4.8
1979-08-05 03:31:43.370 ,0,1,2.,4.8,0.,4.8,1.,4.8,0.,4.8
1979-08-05 03:31:48.170 ,0,1,,0,,0,,0,,0
1979-08-05 03:31:52.970 ,0,1,1.,4.8,0.,4.8,1.,4.8,0.,4.8
1979-08-05 03:31:57.770 ,4,1,1.,4.8,0.,4.8,0.,4.8,0.,4.8
1979-08-05 03:32:02.570 ,4,1,1.,4.8,1.,4.8,0.,4.8,0.,4.8
1979-08-05 03:32:07.370 ,4,1,1.,4.8,0.,4.8,1.,4.8,0.,4.8
1979-08-05 03:32:12.170 ,4,1,0.,4.8,0.,4.8,1.,4.8,0.,4.8
1979-08-05 03:32:16.970 ,4,1,3.,4.8,1.,4.8,1.,4.8,0.,4.8
1979-08-05 03:32:21.770 ,7,1,1.,4.8,0.,4.8,1.,4.8,0.,4.8
1979-08-05 03:32:26.570 ,7,1,0.,4.8,0.,4.8,1.,4.8,0.,4.8
1979-08-05 03:32:31.370 ,7,1,2.,4.8,1.,4.8,2.,4.8,0.,4.8
1979-08-05 03:32:36.170 ,7,1,0.,4.8,3.,4.8,0.,4.8,0.,4.8
1979-08-05 03:32:40.970 ,7,1,2.,4.8,0.,4.8,0.,4.8,0.,4.8
1979-08-05 03:32:45.770 ,3,1,2.,4.8,0.,4.8,0.,4.8,0.,4.8
1979-08-05 03:32:50.570 ,3,1,3.,4.8,1.,4.8,1.,4.8,0.,4.8
1979-08-05 03:32:55.370 ,3,1,1.,4.8,1.,4.8,0.,4.8,0.,4.8
1979-08-05 03:33:00.170 ,3,1,1.,4.8,0.,4.8,1.,4.8,0.,4.8